AXY2972 KIND-KGTF

Flight info

Callsign AXY2972
Flight time 3h 1m
Altitude 40000
Route ROCKY1 SPI FRYRE ILECU JELRO SHOTO CHMNY LEWIT
Aircraft A343/H-SDE2E3FGHIJ4J5M1RWXY/LB1D1

Departure

Time 2026-04-25 10:54
Airport Indianapolis International Airport (KIND)

Arrival

Time 2026-04-25 13:55
Airport Great Falls International Airport (KGTF)
Time Latitude Longitude Altitude Speed Heading
2026-04-25 10:33 39.72511 -86.30488 785 ft 0 kts 306°
2026-04-25 10:42 39.72501 -86.30470 786 ft 3 kts 307°
2026-04-25 10:42 39.72486 -86.30453 786 ft 3 kts 352°
2026-04-25 10:42 39.72468 -86.30453 786 ft 0 kts 34°
2026-04-25 10:47 39.72476 -86.30446 786 ft 3 kts 34°
2026-04-25 10:48 39.72495 -86.30422 786 ft 2 kts 60°
2026-04-25 10:48 39.72498 -86.30398 787 ft 3 kts 81°
2026-04-25 10:48 39.72495 -86.30392 787 ft 1 kts 112°
2026-04-25 10:48 39.72482 -86.30364 788 ft 5 kts 119°
2026-04-25 10:49 39.72462 -86.30319 789 ft 6 kts 119°
2026-04-25 10:49 39.72447 -86.30289 790 ft 6 kts 128°
2026-04-25 10:49 39.72414 -86.30242 791 ft 5 kts 133°
2026-04-25 10:49 39.72397 -86.30185 792 ft 9 kts 82°
2026-04-25 10:50 39.72438 -86.30115 792 ft 9 kts 45°
2026-04-25 10:50 39.72491 -86.30046 790 ft 13 kts 45°
2026-04-25 10:50 39.72551 -86.29970 789 ft 10 kts 44°
2026-04-25 10:50 39.72604 -86.29901 789 ft 12 kts 44°
2026-04-25 10:51 39.72669 -86.29819 788 ft 15 kts 44°
2026-04-25 10:51 39.72748 -86.29720 787 ft 11 kts 44°
2026-04-25 10:51 39.72796 -86.29659 788 ft 10 kts 44°
2026-04-25 10:51 39.72844 -86.29598 789 ft 8 kts 44°
2026-04-25 10:52 39.72868 -86.29532 789 ft 9 kts 86°
2026-04-25 10:52 39.72847 -86.29485 787 ft 1 kts 133°
2026-04-25 10:52 39.72831 -86.29463 787 ft 6 kts 134°
2026-04-25 10:52 39.72793 -86.29414 786 ft 9 kts 140°
2026-04-25 10:53 39.72736 -86.29412 786 ft 7 kts 210°
2026-04-25 10:53 39.72714 -86.29438 786 ft 16 kts 222°
2026-04-25 10:53 39.72452 -86.29772 786 ft 88 kts 225°
2026-04-25 10:53 39.71880 -86.30500 787 ft 143 kts 224°
2026-04-25 10:54 39.71068 -86.31514 1017 ft 173 kts 225°
2026-04-25 10:54 39.70466 -86.32269 1411 ft 182 kts 226°
2026-04-25 10:54 39.69254 -86.33936 2145 ft 205 kts 232°
2026-04-25 10:54 39.68529 -86.35655 2551 ft 232 kts 255°
2026-04-25 10:55 39.68070 -86.37758 3394 ft 248 kts 257°
2026-04-25 10:55 39.67605 -86.39939 4504 ft 254 kts 256°
2026-04-25 10:55 39.67119 -86.42169 5592 ft 260 kts 257°
2026-04-25 10:55 39.66622 -86.44459 6618 ft 268 kts 257°
2026-04-25 10:56 39.66110 -86.46820 7612 ft 275 kts 257°
2026-04-25 10:56 39.65587 -86.49229 8636 ft 280 kts 257°
2026-04-25 10:56 39.65053 -86.51690 9631 ft 286 kts 257°
2026-04-25 10:56 39.64507 -86.54203 10483 ft 296 kts 257°
2026-04-25 10:57 39.63929 -86.56872 10944 ft 318 kts 257°
2026-04-25 10:57 39.63314 -86.59705 11544 ft 332 kts 257°
2026-04-25 10:57 39.62676 -86.62626 12320 ft 340 kts 256°
2026-04-25 10:57 39.62026 -86.65596 13168 ft 345 kts 256°
2026-04-25 10:58 39.61365 -86.68617 14010 ft 350 kts 256°
2026-04-25 10:58 39.60696 -86.71670 14808 ft 354 kts 256°
2026-04-25 10:58 39.60021 -86.74744 15685 ft 355 kts 256°
2026-04-25 10:58 39.59343 -86.77833 16553 ft 357 kts 256°
2026-04-25 10:59 39.58667 -86.80905 17428 ft 360 kts 256°
2026-04-25 10:59 39.57979 -86.84032 18282 ft 362 kts 256°
2026-04-25 10:59 39.57284 -86.87183 19028 ft 364 kts 255°
2026-04-25 10:59 39.56586 -86.90345 19830 ft 365 kts 255°
2026-04-25 11:00 39.55887 -86.93508 20615 ft 366 kts 254°
2026-04-25 11:00 39.55184 -86.96679 21403 ft 367 kts 253°
2026-04-25 11:00 39.54478 -86.99863 22144 ft 368 kts 253°
2026-04-25 11:00 39.53770 -87.03052 22855 ft 370 kts 252°
2026-04-25 11:01 39.53059 -87.06252 23610 ft 370 kts 252°
2026-04-25 11:01 39.52343 -87.09465 24192 ft 372 kts 252°
2026-04-25 11:01 39.51621 -87.12704 24750 ft 374 kts 252°
2026-04-25 11:01 39.50898 -87.15944 25296 ft 376 kts 252°
2026-04-25 11:02 39.50177 -87.19168 25845 ft 377 kts 252°
2026-04-25 11:02 39.49491 -87.22448 26386 ft 380 kts 255°
2026-04-25 11:02 39.49116 -87.25896 26929 ft 384 kts 264°
2026-04-25 11:02 39.49177 -87.29329 27444 ft 389 kts 270°
2026-04-25 11:03 39.49412 -87.32838 27975 ft 391 kts 271°
2026-04-25 11:03 39.49664 -87.36351 28491 ft 392 kts 271°
2026-04-25 11:03 39.49913 -87.39871 29012 ft 394 kts 270°
2026-04-25 11:03 39.50158 -87.43408 29481 ft 395 kts 270°
2026-04-25 11:04 39.50401 -87.46961 29933 ft 397 kts 270°
2026-04-25 11:04 39.50643 -87.50529 30329 ft 399 kts 270°
2026-04-25 11:04 39.50884 -87.54126 30682 ft 401 kts 270°
2026-04-25 11:04 39.51044 -87.56526 30920 ft 403 kts 270°
2026-04-25 11:05 39.51366 -87.61374 31378 ft 406 kts 270°
2026-04-25 11:05 39.51608 -87.65024 31731 ft 408 kts 269°
2026-04-25 11:05 39.51849 -87.68694 32144 ft 408 kts 269°
2026-04-25 11:05 39.52089 -87.72346 32665 ft 406 kts 269°
2026-04-25 11:06 39.52327 -87.75972 33221 ft 402 kts 269°
2026-04-25 11:06 39.52558 -87.79527 33747 ft 399 kts 269°
2026-04-25 11:06 39.52714 -87.81939 34038 ft 398 kts 269°
2026-04-25 11:06 39.53017 -87.86666 34518 ft 397 kts 269°
2026-04-25 11:07 39.53245 -87.90234 34838 ft 397 kts 269°
2026-04-25 11:07 39.53470 -87.93796 35166 ft 397 kts 269°
2026-04-25 11:07 39.53622 -87.96199 35377 ft 396 kts 269°
2026-04-25 11:07 39.53846 -87.99755 35704 ft 396 kts 269°
2026-04-25 11:08 39.54070 -88.03314 36014 ft 396 kts 269°
2026-04-25 11:08 39.54288 -88.06816 36329 ft 395 kts 269°
2026-04-25 11:08 39.54508 -88.10365 36654 ft 395 kts 270°
2026-04-25 11:08 39.54728 -88.13926 36908 ft 397 kts 270°
2026-04-25 11:09 39.54946 -88.17488 37182 ft 397 kts 270°
2026-04-25 11:09 39.55165 -88.21060 37483 ft 397 kts 270°
2026-04-25 11:09 39.55382 -88.24626 37783 ft 397 kts 270°
2026-04-25 11:09 39.55598 -88.28190 38077 ft 397 kts 270°
2026-04-25 11:10 39.55814 -88.31763 38370 ft 396 kts 270°
2026-04-25 11:10 39.55955 -88.34113 38558 ft 396 kts 270°
2026-04-25 11:10 39.56239 -88.38882 38866 ft 396 kts 271°
2026-04-25 11:10 39.56450 -88.42442 39075 ft 397 kts 271°
2026-04-25 11:11 39.56660 -88.46006 39259 ft 397 kts 271°
2026-04-25 11:11 39.56870 -88.49581 39468 ft 398 kts 271°
2026-04-25 11:11 39.57079 -88.53159 39662 ft 399 kts 271°
2026-04-25 11:11 39.57284 -88.56696 39835 ft 399 kts 271°
2026-04-25 11:12 39.57492 -88.60301 39929 ft 402 kts 271°
2026-04-25 11:12 39.57911 -88.67638 39945 ft 413 kts 271°
2026-04-25 11:13 39.58336 -88.75126 39947 ft 416 kts 271°
2026-04-25 11:13 39.58750 -88.82531 39949 ft 414 kts 271°
2026-04-25 11:13 39.59274 -88.86215 39961 ft 418 kts 283°
2026-04-25 11:14 39.60237 -88.89788 39953 ft 420 kts 288°
2026-04-25 11:14 39.62589 -88.96762 39953 ft 422 kts 290°
2026-04-25 11:15 39.64916 -89.03762 39951 ft 421 kts 288°
2026-04-25 11:15 39.67081 -89.10757 39954 ft 421 kts 287°
2026-04-25 11:16 39.70255 -89.21390 39955 ft 421 kts 287°
2026-04-25 11:16 39.72360 -89.28472 39957 ft 421 kts 287°
2026-04-25 11:17 39.74472 -89.35580 39954 ft 421 kts 287°
2026-04-25 11:17 39.76565 -89.42633 39965 ft 421 kts 287°
2026-04-25 11:18 39.78667 -89.49732 39966 ft 421 kts 287°
2026-04-25 11:18 39.80766 -89.56843 39985 ft 421 kts 287°
2026-04-25 11:19 39.82864 -89.63955 39970 ft 423 kts 288°
2026-04-25 11:19 39.85730 -89.70688 39972 ft 430 kts 300°
2026-04-25 11:20 39.89265 -89.76985 39971 ft 431 kts 302°
2026-04-25 11:20 39.92894 -89.83196 39969 ft 432 kts 303°
2026-04-25 11:21 39.96529 -89.89427 39965 ft 431 kts 302°
2026-04-25 11:21 40.00137 -89.95660 39963 ft 431 kts 302°
2026-04-25 11:22 40.03131 -90.00857 39992 ft 431 kts 302°
2026-04-25 11:22 40.07313 -90.08134 39963 ft 430 kts 302°
2026-04-25 11:23 40.10899 -90.14385 39960 ft 430 kts 302°
2026-04-25 11:23 40.14486 -90.20651 39966 ft 430 kts 302°
2026-04-25 11:24 40.18068 -90.26919 39963 ft 430 kts 302°
2026-04-25 11:24 40.21627 -90.33160 39968 ft 430 kts 302°
2026-04-25 11:25 40.25202 -90.39441 39976 ft 430 kts 302°
2026-04-25 11:25 40.28770 -90.45724 39981 ft 429 kts 302°
2026-04-25 11:26 40.32322 -90.51990 39991 ft 429 kts 302°
2026-04-25 11:26 40.35871 -90.58262 39998 ft 429 kts 302°
2026-04-25 11:27 40.39428 -90.64564 40002 ft 429 kts 302°
2026-04-25 11:27 40.42383 -90.69808 40008 ft 429 kts 302°
2026-04-25 11:28 40.46504 -90.77135 40012 ft 429 kts 302°
2026-04-25 11:28 40.50044 -90.83442 40001 ft 429 kts 302°
2026-04-25 11:29 40.53578 -90.89753 39997 ft 429 kts 302°
2026-04-25 11:29 40.57113 -90.96078 39981 ft 429 kts 302°
2026-04-25 11:30 40.60643 -91.02406 39981 ft 429 kts 302°
2026-04-25 11:30 40.64165 -91.08734 39981 ft 429 kts 302°
2026-04-25 11:31 40.67690 -91.15079 39981 ft 429 kts 302°
2026-04-25 11:31 40.71205 -91.21420 39980 ft 427 kts 302°
2026-04-25 11:32 40.74702 -91.27740 39980 ft 427 kts 302°
2026-04-25 11:32 40.78199 -91.34073 39981 ft 427 kts 302°
2026-04-25 11:33 40.81688 -91.40407 39999 ft 427 kts 302°
2026-04-25 11:33 40.85147 -91.46697 39997 ft 427 kts 302°
2026-04-25 11:34 40.88631 -91.53047 40003 ft 427 kts 302°
2026-04-25 11:34 40.92108 -91.59394 40004 ft 425 kts 302°
2026-04-25 11:35 40.95573 -91.65734 39998 ft 425 kts 302°
2026-04-25 11:35 40.99022 -91.72060 39998 ft 425 kts 302°
2026-04-25 11:36 41.02482 -91.78417 39998 ft 425 kts 302°
2026-04-25 11:36 41.05934 -91.84773 39994 ft 425 kts 302°
2026-04-25 11:37 41.09358 -91.91089 39990 ft 424 kts 302°
2026-04-25 11:37 41.12792 -91.97438 40002 ft 423 kts 302°
2026-04-25 11:38 41.16218 -92.03782 39993 ft 422 kts 301°
2026-04-25 11:38 41.19636 -92.10128 39994 ft 422 kts 301°
2026-04-25 11:39 41.23053 -92.16486 39996 ft 422 kts 301°
2026-04-25 11:39 41.26436 -92.22794 39997 ft 422 kts 301°
2026-04-25 11:40 41.29850 -92.29170 39995 ft 422 kts 301°
2026-04-25 11:40 41.33252 -92.35537 40003 ft 421 kts 301°
2026-04-25 11:41 41.36641 -92.41892 39990 ft 420 kts 301°
2026-04-25 11:41 41.40022 -92.48248 39991 ft 420 kts 301°
2026-04-25 11:42 41.43391 -92.54594 40003 ft 420 kts 301°
2026-04-25 11:42 41.46740 -92.60915 39996 ft 420 kts 301°
2026-04-25 11:43 41.50112 -92.67293 40004 ft 420 kts 301°
2026-04-25 11:43 41.53474 -92.73665 40017 ft 419 kts 301°
2026-04-25 11:44 41.56821 -92.80021 40008 ft 419 kts 301°
2026-04-25 11:44 41.60175 -92.86404 39993 ft 419 kts 301°
2026-04-25 11:45 41.63522 -92.92787 39991 ft 419 kts 301°
2026-04-25 11:45 41.66867 -92.99180 39988 ft 419 kts 301°
2026-04-25 11:46 41.70179 -93.05524 39993 ft 419 kts 301°
2026-04-25 11:46 41.73520 -93.11935 40007 ft 419 kts 301°
2026-04-25 11:47 41.76853 -93.18345 39993 ft 419 kts 300°
2026-04-25 11:47 41.80177 -93.24752 39993 ft 419 kts 300°
2026-04-25 11:48 41.83509 -93.31188 40004 ft 419 kts 300°
2026-04-25 11:48 41.86812 -93.37580 39996 ft 419 kts 300°
2026-04-25 11:49 41.90135 -93.44024 39998 ft 419 kts 300°
2026-04-25 11:49 41.93456 -93.50479 40014 ft 419 kts 300°
2026-04-25 11:50 41.96751 -93.56897 39999 ft 420 kts 300°
2026-04-25 11:50 42.00068 -93.63371 39999 ft 420 kts 300°
2026-04-25 11:51 42.03379 -93.69847 40000 ft 420 kts 300°
2026-04-25 11:51 42.06689 -93.76336 39990 ft 420 kts 300°
2026-04-25 11:52 42.09993 -93.82828 39991 ft 420 kts 300°
2026-04-25 11:52 42.13292 -93.89322 40010 ft 419 kts 300°
2026-04-25 11:53 42.16586 -93.95819 39996 ft 420 kts 300°
2026-04-25 11:53 42.19861 -94.02297 40025 ft 420 kts 300°
2026-04-25 11:54 42.23149 -94.08811 40026 ft 420 kts 300°
2026-04-25 11:55 42.27520 -94.17494 40036 ft 420 kts 300°
2026-04-25 11:55 42.30802 -94.24029 40036 ft 419 kts 300°
2026-04-25 11:56 42.34067 -94.30545 40042 ft 419 kts 300°
2026-04-25 11:56 42.37308 -94.37028 40039 ft 419 kts 299°
2026-04-25 11:57 42.40572 -94.43573 40040 ft 419 kts 299°
2026-04-25 11:57 42.43834 -94.50126 40044 ft 419 kts 299°
2026-04-25 11:58 42.47091 -94.56683 40052 ft 419 kts 299°
2026-04-25 11:58 42.50343 -94.63242 40054 ft 418 kts 299°
2026-04-25 11:59 42.53563 -94.69753 40063 ft 418 kts 299°
2026-04-25 11:59 42.56818 -94.76353 40052 ft 419 kts 299°
2026-04-25 12:00 42.61660 -94.86191 40042 ft 420 kts 299°
2026-04-25 12:01 42.66507 -94.96073 40035 ft 419 kts 298°
2026-04-25 12:01 42.69738 -95.02679 40023 ft 420 kts 298°
2026-04-25 12:02 42.74588 -95.12623 40017 ft 420 kts 298°
2026-04-25 12:02 42.77814 -95.19255 40017 ft 420 kts 298°
2026-04-25 12:03 42.81037 -95.25896 40020 ft 420 kts 298°
2026-04-25 12:03 42.84239 -95.32507 40030 ft 420 kts 298°
2026-04-25 12:04 42.87463 -95.39181 40025 ft 422 kts 298°
2026-04-25 12:04 42.90702 -95.45902 40040 ft 424 kts 298°
2026-04-25 12:05 42.93942 -95.52639 40029 ft 427 kts 298°
2026-04-25 12:05 42.97199 -95.59425 40031 ft 427 kts 298°
2026-04-25 12:06 43.00431 -95.66172 40022 ft 427 kts 298°
2026-04-25 12:06 43.03683 -95.72980 40021 ft 427 kts 298°
2026-04-25 12:07 43.06931 -95.79795 40021 ft 428 kts 298°
2026-04-25 12:07 43.10181 -95.86632 40016 ft 429 kts 298°
2026-04-25 12:08 43.13444 -95.93510 40017 ft 431 kts 298°
2026-04-25 12:08 43.16681 -96.00347 40020 ft 431 kts 298°
2026-04-25 12:09 43.19934 -96.07236 40020 ft 431 kts 298°
2026-04-25 12:09 43.23185 -96.14138 40024 ft 430 kts 298°
2026-04-25 12:10 43.26429 -96.21039 40053 ft 430 kts 298°
2026-04-25 12:10 43.29667 -96.27947 40035 ft 431 kts 298°
2026-04-25 12:11 43.32913 -96.34886 40032 ft 431 kts 298°
2026-04-25 12:11 43.36151 -96.41824 40031 ft 431 kts 298°
2026-04-25 12:12 43.38844 -96.47606 40035 ft 431 kts 298°
2026-04-25 12:12 43.42591 -96.55670 40034 ft 430 kts 298°
2026-04-25 12:13 43.45807 -96.62610 40063 ft 430 kts 299°
2026-04-25 12:13 43.49022 -96.69565 40062 ft 431 kts 299°
2026-04-25 12:14 43.52239 -96.76542 40061 ft 431 kts 299°
2026-04-25 12:14 43.55454 -96.83530 40061 ft 431 kts 299°
2026-04-25 12:15 43.58658 -96.90508 40058 ft 429 kts 298°
2026-04-25 12:15 43.61815 -96.97399 40056 ft 427 kts 298°
2026-04-25 12:16 43.64986 -97.04342 40075 ft 427 kts 298°
2026-04-25 12:16 43.68150 -97.11287 40075 ft 428 kts 298°
2026-04-25 12:17 43.71365 -97.18226 40078 ft 428 kts 300°
2026-04-25 12:17 43.74646 -97.25101 40068 ft 428 kts 300°
2026-04-25 12:18 43.77929 -97.31998 40089 ft 428 kts 300°
2026-04-25 12:18 43.81188 -97.38900 40089 ft 429 kts 299°
2026-04-25 12:19 43.86078 -97.49313 40091 ft 430 kts 299°
2026-04-25 12:20 43.89317 -97.56229 40089 ft 430 kts 299°
2026-04-25 12:20 43.92572 -97.63194 40102 ft 430 kts 299°
2026-04-25 12:21 43.95816 -97.70152 40103 ft 428 kts 299°
2026-04-25 12:21 43.99046 -97.77101 40115 ft 429 kts 299°
2026-04-25 12:22 44.02289 -97.84096 40114 ft 431 kts 298°
2026-04-25 12:22 44.05536 -97.91113 40118 ft 431 kts 298°
2026-04-25 12:23 44.08763 -97.98102 40121 ft 431 kts 298°
2026-04-25 12:23 44.11999 -98.05127 40125 ft 431 kts 298°
2026-04-25 12:24 44.15236 -98.12173 40124 ft 432 kts 298°
2026-04-25 12:24 44.18482 -98.19260 40124 ft 434 kts 298°
2026-04-25 12:25 44.21712 -98.26324 40129 ft 435 kts 298°
2026-04-25 12:25 44.24960 -98.33446 40131 ft 435 kts 298°
2026-04-25 12:26 44.28200 -98.40567 40129 ft 435 kts 298°
2026-04-25 12:26 44.31437 -98.47700 40137 ft 435 kts 298°
2026-04-25 12:27 44.34681 -98.54869 40132 ft 437 kts 298°
2026-04-25 12:27 44.37929 -98.62062 40130 ft 437 kts 298°
2026-04-25 12:28 44.41165 -98.69244 40133 ft 437 kts 298°
2026-04-25 12:28 44.44401 -98.76446 40128 ft 437 kts 298°
2026-04-25 12:29 44.47631 -98.83653 40129 ft 437 kts 298°
2026-04-25 12:29 44.50836 -98.90824 40130 ft 437 kts 298°
2026-04-25 12:30 44.54060 -98.98053 40129 ft 437 kts 298°
2026-04-25 12:30 44.57277 -99.05287 40129 ft 437 kts 298°
2026-04-25 12:31 44.60487 -99.12519 40132 ft 437 kts 297°
2026-04-25 12:31 44.63697 -99.19771 40134 ft 437 kts 297°
2026-04-25 12:32 44.66905 -99.27039 40133 ft 439 kts 297°
2026-04-25 12:32 44.70126 -99.34354 40129 ft 440 kts 297°
2026-04-25 12:33 44.73337 -99.41666 40129 ft 440 kts 297°
2026-04-25 12:33 44.76553 -99.49004 40127 ft 440 kts 297°
2026-04-25 12:34 44.79740 -99.56300 40142 ft 440 kts 297°
2026-04-25 12:34 44.82951 -99.63670 40127 ft 440 kts 297°
2026-04-25 12:35 44.86138 -99.71005 40123 ft 440 kts 297°
2026-04-25 12:35 44.89337 -99.78385 40118 ft 440 kts 297°
2026-04-25 12:36 44.92508 -99.85719 40116 ft 440 kts 297°
2026-04-25 12:36 44.95692 -99.93100 40121 ft 440 kts 297°
2026-04-25 12:37 44.98870 -100.00488 40116 ft 441 kts 297°
2026-04-25 12:37 45.02067 -100.07940 40111 ft 444 kts 297°
2026-04-25 12:38 45.05267 -100.15419 40115 ft 445 kts 297°
2026-04-25 12:38 45.08467 -100.22913 40110 ft 444 kts 297°
2026-04-25 12:39 45.11598 -100.30430 40122 ft 442 kts 292°
2026-04-25 12:39 45.14064 -100.38383 40106 ft 442 kts 289°
2026-04-25 12:40 45.16362 -100.46409 40121 ft 442 kts 288°
2026-04-25 12:40 45.18641 -100.54505 40128 ft 442 kts 288°
2026-04-25 12:41 45.20919 -100.62597 40113 ft 441 kts 288°
2026-04-25 12:41 45.23198 -100.70691 40120 ft 441 kts 288°
2026-04-25 12:42 45.25087 -100.77413 40133 ft 441 kts 288°
2026-04-25 12:42 45.27356 -100.85509 40126 ft 442 kts 288°
2026-04-25 12:43 45.29622 -100.93624 40131 ft 443 kts 288°
2026-04-25 12:43 45.33023 -101.05856 40129 ft 443 kts 288°
2026-04-25 12:44 45.35265 -101.13952 40133 ft 443 kts 288°
2026-04-25 12:45 45.38643 -101.26204 40127 ft 443 kts 288°
2026-04-25 12:45 45.42003 -101.38453 40138 ft 443 kts 288°
2026-04-25 12:46 45.44242 -101.46648 40137 ft 444 kts 288°
2026-04-25 12:46 45.46463 -101.54809 40139 ft 444 kts 288°
2026-04-25 12:47 45.48692 -101.63021 40139 ft 444 kts 288°
2026-04-25 12:47 45.50918 -101.71252 40141 ft 444 kts 288°
2026-04-25 12:48 45.53134 -101.79473 40133 ft 444 kts 288°
2026-04-25 12:48 45.55347 -101.87711 40145 ft 444 kts 288°
2026-04-25 12:49 45.57539 -101.95902 40123 ft 444 kts 288°
2026-04-25 12:49 45.59740 -102.04158 40123 ft 445 kts 288°
2026-04-25 12:50 45.61934 -102.12414 40118 ft 445 kts 288°
2026-04-25 12:50 45.64122 -102.20677 40123 ft 445 kts 288°
2026-04-25 12:51 45.66304 -102.28950 40116 ft 444 kts 288°
2026-04-25 12:51 45.68476 -102.37214 40109 ft 444 kts 288°
2026-04-25 12:52 45.70645 -102.45494 40099 ft 444 kts 288°
2026-04-25 12:52 45.72808 -102.53777 40080 ft 444 kts 288°
2026-04-25 12:53 45.74965 -102.62066 40088 ft 444 kts 287°
2026-04-25 12:53 45.77118 -102.70370 40071 ft 444 kts 287°
2026-04-25 12:54 45.79260 -102.78662 40083 ft 444 kts 287°
2026-04-25 12:54 45.81396 -102.86958 40083 ft 443 kts 287°
2026-04-25 12:55 45.83153 -102.93849 40072 ft 443 kts 287°
2026-04-25 12:55 45.85600 -103.03525 40080 ft 434 kts 287°
2026-04-25 12:56 45.86611 -103.07524 40082 ft 423 kts 287°
2026-04-25 12:56 45.87617 -103.11518 40095 ft 429 kts 287°
2026-04-25 12:56 45.89650 -103.19630 40073 ft 441 kts 287°
2026-04-25 12:57 45.91750 -103.28030 40066 ft 452 kts 287°
2026-04-25 12:57 45.93892 -103.36610 40059 ft 459 kts 287°
2026-04-25 12:58 45.96037 -103.45222 40060 ft 456 kts 287°
2026-04-25 12:58 45.98165 -103.53803 40061 ft 455 kts 287°
2026-04-25 12:59 46.00283 -103.62386 40073 ft 455 kts 287°
2026-04-25 12:59 46.02389 -103.70956 40080 ft 455 kts 287°
2026-04-25 13:00 46.04139 -103.78101 40097 ft 455 kts 287°
2026-04-25 13:00 46.06591 -103.88149 40098 ft 455 kts 287°
2026-04-25 13:01 46.08666 -103.96690 40096 ft 455 kts 287°
2026-04-25 13:01 46.10753 -104.05309 40112 ft 455 kts 287°
2026-04-25 13:02 46.12822 -104.13892 40065 ft 455 kts 287°
2026-04-25 13:02 46.14895 -104.22519 40056 ft 456 kts 287°
2026-04-25 13:03 46.16964 -104.31163 40051 ft 456 kts 287°
2026-04-25 13:03 46.19025 -104.39805 40052 ft 456 kts 287°
2026-04-25 13:04 46.21071 -104.48422 40058 ft 455 kts 287°
2026-04-25 13:04 46.23119 -104.57083 40068 ft 455 kts 287°
2026-04-25 13:05 46.25160 -104.65746 40080 ft 455 kts 287°
2026-04-25 13:05 46.27192 -104.74406 40093 ft 455 kts 287°
2026-04-25 13:06 46.29221 -104.83090 40099 ft 455 kts 286°
2026-04-25 13:06 46.31229 -104.91720 40099 ft 455 kts 286°
2026-04-25 13:07 46.33242 -105.00407 40101 ft 455 kts 286°
2026-04-25 13:07 46.35250 -105.09102 40099 ft 455 kts 286°
2026-04-25 13:08 46.37248 -105.17790 40114 ft 455 kts 286°
2026-04-25 13:08 46.39241 -105.26493 40100 ft 456 kts 286°
2026-04-25 13:09 46.41233 -105.35220 40099 ft 456 kts 286°
2026-04-25 13:09 46.43220 -105.43962 40092 ft 456 kts 286°
2026-04-25 13:10 46.45194 -105.52702 40079 ft 456 kts 286°
2026-04-25 13:10 46.47163 -105.61455 40067 ft 456 kts 286°
2026-04-25 13:11 46.49124 -105.70203 40057 ft 456 kts 286°
2026-04-25 13:11 46.51078 -105.78953 40051 ft 456 kts 286°
2026-04-25 13:12 46.53018 -105.87677 40047 ft 457 kts 286°
2026-04-25 13:12 46.54651 -105.95049 40103 ft 457 kts 286°
2026-04-25 13:13 46.56910 -106.05288 40107 ft 457 kts 286°
2026-04-25 13:13 46.58841 -106.14082 40107 ft 457 kts 286°
2026-04-25 13:14 46.60769 -106.22897 40109 ft 457 kts 286°
2026-04-25 13:14 46.62690 -106.31719 40108 ft 457 kts 286°
2026-04-25 13:15 46.64606 -106.40558 40114 ft 458 kts 286°
2026-04-25 13:15 46.66519 -106.49420 40111 ft 459 kts 286°
2026-04-25 13:16 46.68432 -106.58317 40109 ft 459 kts 286°
2026-04-25 13:16 46.70320 -106.67138 40114 ft 459 kts 286°
2026-04-25 13:17 46.72217 -106.76036 40113 ft 459 kts 285°
2026-04-25 13:17 46.74107 -106.84941 40117 ft 459 kts 285°
2026-04-25 13:18 46.75992 -106.93863 40116 ft 460 kts 286°
2026-04-25 13:18 46.77869 -107.02784 40117 ft 461 kts 286°
2026-04-25 13:19 46.79731 -107.11674 40117 ft 461 kts 285°
2026-04-25 13:19 46.80983 -107.17671 40114 ft 461 kts 285°
2026-04-25 13:20 46.83460 -107.29588 40117 ft 461 kts 285°
2026-04-25 13:20 46.85314 -107.38557 40117 ft 461 kts 285°
2026-04-25 13:21 46.87156 -107.47512 40119 ft 460 kts 285°
2026-04-25 13:21 46.88989 -107.56463 40116 ft 460 kts 285°
2026-04-25 13:22 46.90810 -107.65397 40112 ft 461 kts 285°
2026-04-25 13:23 46.93543 -107.78894 40094 ft 461 kts 285°
2026-04-25 13:23 46.95357 -107.87889 40096 ft 461 kts 285°
2026-04-25 13:24 46.97156 -107.96853 40090 ft 461 kts 285°
2026-04-25 13:24 46.98958 -108.05869 40082 ft 460 kts 285°
2026-04-25 13:25 47.00749 -108.14882 40085 ft 461 kts 285°
2026-04-25 13:25 47.02535 -108.23904 40066 ft 461 kts 285°
2026-04-25 13:26 47.04012 -108.31404 40066 ft 461 kts 285°
2026-04-25 13:26 47.06072 -108.41905 40065 ft 461 kts 285°
2026-04-25 13:27 47.07553 -108.49494 40061 ft 461 kts 285°
2026-04-25 13:27 47.09313 -108.58544 40056 ft 461 kts 285°
2026-04-25 13:28 47.11057 -108.67561 40053 ft 461 kts 285°
2026-04-25 13:28 47.12804 -108.76634 40050 ft 462 kts 285°
2026-04-25 13:29 47.14547 -108.85728 40053 ft 462 kts 285°
2026-04-25 13:29 47.16281 -108.94821 40056 ft 461 kts 285°
2026-04-25 13:30 47.18847 -109.08359 40060 ft 461 kts 285°
2026-04-25 13:30 47.19703 -109.12897 39905 ft 458 kts 285°
2026-04-25 13:31 47.21377 -109.21795 39475 ft 442 kts 285°
2026-04-25 13:31 47.22187 -109.26117 39248 ft 435 kts 285°
2026-04-25 13:31 47.22985 -109.30385 39027 ft 428 kts 284°
2026-04-25 13:31 47.23767 -109.34581 38828 ft 424 kts 284°
2026-04-25 13:32 47.24544 -109.38758 38584 ft 423 kts 284°
2026-04-25 13:32 47.25319 -109.42937 38306 ft 423 kts 284°
2026-04-25 13:32 47.26092 -109.47110 38041 ft 422 kts 284°
2026-04-25 13:32 47.26861 -109.51276 37782 ft 422 kts 284°
2026-04-25 13:33 47.27629 -109.55437 37514 ft 421 kts 284°
2026-04-25 13:33 47.28384 -109.59545 37262 ft 420 kts 284°
2026-04-25 13:33 47.29146 -109.63698 37023 ft 420 kts 284°
2026-04-25 13:33 47.29909 -109.67859 36772 ft 419 kts 284°
2026-04-25 13:34 47.30665 -109.72000 36520 ft 418 kts 284°
2026-04-25 13:34 47.31420 -109.76139 36278 ft 418 kts 284°
2026-04-25 13:34 47.32172 -109.80275 36036 ft 417 kts 284°
2026-04-25 13:34 47.32921 -109.84403 35798 ft 417 kts 284°
2026-04-25 13:35 47.33668 -109.88526 35567 ft 416 kts 285°
2026-04-25 13:35 47.34413 -109.92650 35332 ft 417 kts 285°
2026-04-25 13:35 47.35157 -109.96780 35101 ft 416 kts 285°
2026-04-25 13:35 47.35901 -110.00913 34858 ft 416 kts 285°
2026-04-25 13:36 47.36641 -110.05034 34635 ft 415 kts 285°
2026-04-25 13:36 47.37377 -110.09150 34405 ft 415 kts 285°
2026-04-25 13:36 47.37861 -110.13349 34185 ft 415 kts 274°
2026-04-25 13:36 47.37693 -110.17596 33926 ft 417 kts 261°
2026-04-25 13:37 47.37066 -110.21724 33661 ft 418 kts 258°
2026-04-25 13:37 47.36340 -110.25897 33381 ft 419 kts 258°
2026-04-25 13:37 47.35605 -110.30044 32881 ft 418 kts 258°
2026-04-25 13:37 47.34863 -110.34212 32174 ft 419 kts 258°
2026-04-25 13:38 47.34120 -110.38380 31457 ft 422 kts 258°
2026-04-25 13:38 47.33369 -110.42583 30703 ft 425 kts 258°
2026-04-25 13:38 47.32618 -110.46774 30155 ft 421 kts 258°
2026-04-25 13:38 47.31870 -110.50934 29556 ft 417 kts 258°
2026-04-25 13:39 47.31130 -110.55040 28975 ft 412 kts 258°
2026-04-25 13:39 47.30407 -110.59046 28434 ft 408 kts 258°
2026-04-25 13:39 47.29672 -110.63114 27861 ft 404 kts 258°
2026-04-25 13:39 47.28960 -110.67044 27334 ft 399 kts 258°
2026-04-25 13:40 47.28248 -110.70967 26781 ft 396 kts 258°
2026-04-25 13:40 47.27537 -110.74872 26229 ft 392 kts 258°
2026-04-25 13:40 47.26834 -110.78731 25662 ft 390 kts 258°
2026-04-25 13:40 47.26131 -110.82579 25121 ft 387 kts 258°
2026-04-25 13:41 47.25434 -110.86393 24572 ft 385 kts 258°
2026-04-25 13:41 47.24735 -110.90181 24025 ft 383 kts 257°
2026-04-25 13:41 47.23719 -110.93810 23466 ft 385 kts 243°
2026-04-25 13:41 47.22109 -110.96964 22858 ft 386 kts 232°
2026-04-25 13:42 47.20326 -110.99916 22258 ft 384 kts 231°
2026-04-25 13:42 47.18681 -111.02972 21488 ft 379 kts 239°
2026-04-25 13:42 47.17477 -111.06359 20318 ft 370 kts 253°
2026-04-25 13:42 47.16888 -111.09938 19742 ft 353 kts 262°
2026-04-25 13:43 47.16474 -111.13482 19271 ft 352 kts 263°
2026-04-25 13:43 47.16083 -111.17034 18756 ft 352 kts 263°
2026-04-25 13:43 47.15697 -111.20588 18171 ft 352 kts 263°
2026-04-25 13:43 47.15314 -111.24131 17620 ft 349 kts 263°
2026-04-25 13:44 47.14935 -111.27643 17106 ft 346 kts 263°
2026-04-25 13:44 47.14567 -111.31063 16616 ft 342 kts 263°
2026-04-25 13:44 47.14197 -111.34491 16116 ft 338 kts 263°
2026-04-25 13:44 47.13829 -111.37889 15600 ft 335 kts 263°
2026-04-25 13:45 47.13463 -111.41266 15105 ft 333 kts 263°
2026-04-25 13:45 47.13100 -111.44618 14612 ft 331 kts 263°
2026-04-25 13:45 47.12741 -111.47904 14359 ft 318 kts 262°
2026-04-25 13:45 47.12401 -111.51003 14014 ft 295 kts 262°
2026-04-25 13:46 47.12087 -111.53855 13568 ft 272 kts 262°
2026-04-25 13:46 47.11801 -111.56514 13090 ft 257 kts 264°
2026-04-25 13:46 47.11734 -111.59065 12586 ft 245 kts 276°
2026-04-25 13:46 47.12108 -111.61475 12193 ft 242 kts 291°
2026-04-25 13:47 47.12931 -111.63635 11940 ft 243 kts 307°
2026-04-25 13:47 47.14134 -111.65367 11739 ft 242 kts 322°
2026-04-25 13:47 47.15576 -111.66625 11369 ft 240 kts 331°
2026-04-25 13:47 47.17074 -111.67720 11005 ft 241 kts 332°
2026-04-25 13:48 47.18576 -111.68802 10847 ft 239 kts 332°
2026-04-25 13:48 47.20050 -111.69872 10708 ft 239 kts 332°
2026-04-25 13:48 47.21623 -111.70756 10562 ft 240 kts 345°
2026-04-25 13:48 47.23279 -111.70888 10391 ft 240 kts
2026-04-25 13:49 47.24851 -111.70146 10192 ft 242 kts 26°
2026-04-25 13:49 47.26200 -111.68675 9783 ft 241 kts 39°
2026-04-25 13:49 47.27422 -111.66980 9218 ft 242 kts 41°
2026-04-25 13:49 47.28646 -111.65272 8904 ft 240 kts 40°
2026-04-25 13:50 47.29823 -111.63593 8740 ft 230 kts 42°
2026-04-25 13:50 47.30927 -111.61954 8458 ft 221 kts 42°
2026-04-25 13:50 47.31988 -111.60376 8188 ft 211 kts 41°
2026-04-25 13:50 47.33014 -111.58877 7903 ft 206 kts 41°
2026-04-25 13:51 47.34034 -111.57381 7574 ft 207 kts 42°
2026-04-25 13:51 47.35047 -111.55889 7242 ft 205 kts 42°
2026-04-25 13:51 47.36061 -111.54400 6952 ft 206 kts 42°
2026-04-25 13:51 47.37070 -111.52915 6667 ft 200 kts 43°
2026-04-25 13:52 47.38021 -111.51512 6388 ft 187 kts 43°
2026-04-25 13:52 47.38914 -111.50198 6130 ft 177 kts 42°
2026-04-25 13:52 47.39774 -111.48933 5869 ft 170 kts 43°
2026-04-25 13:52 47.40570 -111.47758 5648 ft 156 kts 42°
2026-04-25 13:53 47.41326 -111.46646 5436 ft 154 kts 42°
2026-04-25 13:53 47.42086 -111.45528 5209 ft 155 kts 43°
2026-04-25 13:53 47.42845 -111.44408 4999 ft 154 kts 42°
2026-04-25 13:53 47.43602 -111.43287 4713 ft 154 kts 43°
2026-04-25 13:54 47.44355 -111.42169 4453 ft 153 kts 43°
2026-04-25 13:54 47.45104 -111.41066 4222 ft 152 kts 42°
2026-04-25 13:54 47.45853 -111.39967 4016 ft 152 kts 42°
2026-04-25 13:54 47.46594 -111.38878 3825 ft 151 kts 43°
2026-04-25 13:55 47.47335 -111.37789 3686 ft 146 kts 43°
2026-04-25 13:55 47.47933 -111.36918 3676 ft 95 kts 45°
2026-04-25 13:55 47.48268 -111.36418 3673 ft 47 kts 45°
2026-04-25 13:55 47.48453 -111.36147 3670 ft 13 kts 45°
2026-04-25 13:56 47.48518 -111.36034 3670 ft 16 kts 57°
2026-04-25 13:56 47.48562 -111.35903 3670 ft 10 kts 68°
2026-04-25 13:56 47.48571 -111.35855 3670 ft 1 kts 78°
2026-04-25 13:56 47.48572 -111.35848 3671 ft 0 kts 78°
2026-04-25 13:58 47.48574 -111.35839 3671 ft 3 kts 78°
2026-04-25 13:58 47.48582 -111.35778 3671 ft 8 kts 78°
2026-04-25 13:58 47.48589 -111.35729 3671 ft 3 kts 90°
2026-04-25 13:58 47.48589 -111.35666 3671 ft 8 kts 90°
2026-04-25 13:59 47.48565 -111.35610 3670 ft 6 kts 151°
2026-04-25 13:59 47.48523 -111.35607 3671 ft 7 kts 188°
2026-04-25 13:59 47.48472 -111.35618 3671 ft 8 kts 190°
2026-04-25 13:59 47.48409 -111.35636 3672 ft 10 kts 193°
2026-04-25 14:00 47.48362 -111.35687 3672 ft 7 kts 245°
2026-04-25 14:00 47.48347 -111.35751 3672 ft 3 kts 228°
2026-04-25 14:00 47.48325 -111.35757 3672 ft 5 kts 185°
2026-04-25 14:00 47.48312 -111.35757 3673 ft 2 kts 181°
2026-04-25 14:01 47.48303 -111.35757 3673 ft 2 kts 181°
2026-04-25 14:01 47.48293 -111.35757 3673 ft 0 kts 180°